TimeMST,TemperatureF,Dew PointF,Humidity,Sea Level PressureIn,VisibilityMPH,Wind Direction,Wind SpeedMPH,Gust SpeedMPH,PrecipitationIn,Events,Conditions,WindDirDegrees,DateUTC
12:53 AM,37.9,19.0,47,29.61,10.0,South,4.6,-,N/A,,Mostly Cloudy,190,2013-02-09 07:53:00
1:53 AM,37.0,21.9,54,29.61,10.0,Calm,Calm,-,N/A,,Overcast,0,2013-02-09 08:53:00
2:53 AM,35.1,23.0,61,29.59,10.0,NE,4.6,-,N/A,,Scattered Clouds,40,2013-02-09 09:53:00
3:53 AM,33.1,24.1,70,29.61,10.0,NNW,5.8,-,N/A,,Overcast,330,2013-02-09 10:53:00
4:28 AM,30.2,28.4,93,29.69,2.0,North,6.9,-,0.00,Snow,Light Snow,350,2013-02-09 11:28:00
4:36 AM,30.2,28.4,93,29.68,2.0,North,8.1,-,0.00,Snow,Light Snow,10,2013-02-09 11:36:00
4:53 AM,30.0,28.9,96,29.62,2.0,North,8.1,-,0.00,Snow,Light Snow,10,2013-02-09 11:53:00
5:07 AM,30.2,28.4,93,29.68,5.0,North,4.6,-,0.00,Snow,Light Snow,360,2013-02-09 12:07:00
5:30 AM,30.2,28.4,93,29.68,1.8,NNE,3.5,-,0.00,Snow,Light Snow,20,2013-02-09 12:30:00
5:39 AM,30.2,28.4,93,29.69,3.0,Calm,Calm,-,0.00,Snow,Light Snow,0,2013-02-09 12:39:00
5:53 AM,30.0,28.9,96,29.62,3.0,Calm,Calm,-,0.00,Snow,Light Snow,0,2013-02-09 12:53:00
5:58 AM,30.2,28.4,93,29.67,1.8,Calm,Calm,-,0.00,Snow,Light Snow,0,2013-02-09 12:58:00
6:03 AM,30.2,28.4,93,29.67,1.0,Calm,Calm,-,0.00,Snow,Light Snow,0,2013-02-09 13:03:00
6:20 AM,30.2,28.4,93,29.67,1.8,NNE,3.5,-,0.01,Snow,Light Snow,20,2013-02-09 13:20:00
6:26 AM,30.2,28.4,93,29.66,3.0,Calm,Calm,-,0.01,Snow,Light Snow,0,2013-02-09 13:26:00
6:39 AM,28.4,28.4,100,29.67,1.8,NNE,4.6,-,0.01,Snow,Light Snow,20,2013-02-09 13:39:00
6:53 AM,28.9,28.0,96,29.63,1.8,ENE,8.1,-,0.01,Snow,Light Snow,70,2013-02-09 13:53:00
6:58 AM,28.4,28.4,100,29.66,2.0,East,10.4,-,0.00,Snow,Light Snow,80,2013-02-09 13:58:00
7:07 AM,30.2,28.4,93,29.66,6.0,ENE,8.1,-,0.00,Snow,Light Snow,70,2013-02-09 14:07:00
7:53 AM,28.9,25.0,85,29.64,10.0,East,4.6,-,0.00,,Overcast,90,2013-02-09 14:53:00
8:53 AM,30.0,26.1,85,29.62,10.0,SE,3.5,-,N/A,,Partly Cloudy,130,2013-02-09 15:53:00
9:53 AM,30.9,25.0,79,29.61,10.0,SE,3.5,-,N/A,,Partly Cloudy,140,2013-02-09 16:53:00
10:53 AM,34.0,23.0,64,29.59,10.0,Calm,Calm,-,N/A,,Mostly Cloudy,0,2013-02-09 17:53:00
11:53 AM,35.1,21.9,59,29.57,10.0,Calm,Calm,-,N/A,,Mostly Cloudy,0,2013-02-09 18:53:00
12:53 PM,36.0,21.9,57,29.55,10.0,Calm,Calm,-,N/A,,Clear,0,2013-02-09 19:53:00
1:53 PM,37.0,19.9,50,29.53,10.0,Calm,Calm,-,N/A,,Partly Cloudy,0,2013-02-09 20:53:00
2:53 PM,37.0,19.9,50,29.52,10.0,North,4.6,-,N/A,,Mostly Cloudy,350,2013-02-09 21:53:00
3:53 PM,34.0,23.0,64,29.55,10.0,NW,19.6,-,N/A,,Overcast,310,2013-02-09 22:53:00
4:53 PM,30.9,23.0,72,29.59,10.0,West,15.0,23.0,N/A,,Overcast,270,2013-02-09 23:53:00
5:53 PM,30.9,21.9,69,29.62,10.0,SW,6.9,-,N/A,,Overcast,230,2013-02-10 00:53:00
6:53 PM,30.9,19.9,64,29.65,10.0,WSW,4.6,-,N/A,,Overcast,250,2013-02-10 01:53:00
7:53 PM,32.0,21.0,64,29.66,10.0,Calm,Calm,-,N/A,,Overcast,0,2013-02-10 02:53:00
8:53 PM,30.9,23.0,72,29.69,10.0,Calm,Calm,-,N/A,,Overcast,0,2013-02-10 03:53:00
9:53 PM,30.9,19.0,61,29.71,10.0,Calm,Calm,-,N/A,,Overcast,0,2013-02-10 04:53:00
10:53 PM,30.9,18.0,59,29.71,10.0,NW,4.6,-,N/A,,Overcast,320,2013-02-10 05:53:00
11:53 PM,28.9,21.0,72,29.74,10.0,North,5.8,-,N/A,,Overcast,10,2013-02-10 06:53:00